User: anonymous   Login
Location: Rio de Janeiro
(22.9068°S, 43.1729°W)
Time: 13:14:37
(UTC-03:00)
Language:

Hubble Space Telescope - Orbit

View from above orbital plane
View from above orbital plane
View from above satellite
View from above satellite

Ground track
Ground track

The orbit data is extracted from the following two-line orbital elements,

1 20580U 90037B   24062.07811419  .00005557  00000-0  27077-3 0  9997
2 20580  28.4697 341.8682 0002660 311.0987  48.9375 15.16144293661014
Epoch (UTC): 02 March 2024 01:52:29
Eccentricity: 0.0002660
inclination: 28.4697°
perigee height: 515 km
apogee height: 519 km
right ascension of ascending node: 341.8682°
argument of perigee: 311.0987°
revolutions per day: 15.16144293
mean anomaly at epoch: 48.9375°
orbit number at epoch: 66101

The dashed part of the orbit path shows where the satellite is in the earth's shadow,  

DLR